TAP1350 LPPT-EGLL

Flight info

Callsign TAP1350
Flight time 2h 30m
Altitude 36000
Route IXIDA DCT RIVRO DCT TOSDI DCT ZMR DCT NUBLO DCT RONSI DCT DELOG DCT DEGEX DCT OZNOH DCT JSY DCT REVTU/N0446F340 UP87 ROXOG
Aircraft A320/M-SDE3FGHIRWY/LB1

Departure

Time 2026-05-07 15:32
Airport Lisbon Humberto Delgado Airport (LPPT)

Arrival

Time 2026-05-07 18:03
Airport London Heathrow Airport (EGLL)
Time Latitude Longitude Altitude Speed Heading
2026-05-07 15:15 38.77297 -9.13162 337 ft 0 kts 78°
2026-05-07 15:24 38.77296 -9.13168 333 ft 3 kts 78°
2026-05-07 15:25 38.77291 -9.13201 333 ft 4 kts 76°
2026-05-07 15:25 38.77280 -9.13230 337 ft 4 kts 39°
2026-05-07 15:25 38.77258 -9.13241 334 ft 3 kts 349°
2026-05-07 15:25 38.77251 -9.13239 338 ft 0 kts 348°
2026-05-07 15:27 38.77268 -9.13243 335 ft 12 kts 349°
2026-05-07 15:28 38.77367 -9.13266 335 ft 15 kts 351°
2026-05-07 15:28 38.77477 -9.13292 337 ft 17 kts 348°
2026-05-07 15:28 38.77597 -9.13320 334 ft 18 kts 360°
2026-05-07 15:28 38.77725 -9.13335 336 ft 18 kts 346°
2026-05-07 15:29 38.77832 -9.13365 352 ft 14 kts 348°
2026-05-07 15:29 38.77918 -9.13388 354 ft 13 kts 348°
2026-05-07 15:29 38.78039 -9.13410 361 ft 18 kts
2026-05-07 15:29 38.78156 -9.13350 358 ft 19 kts 22°
2026-05-07 15:30 38.78278 -9.13286 362 ft 19 kts 22°
2026-05-07 15:30 38.78405 -9.13222 364 ft 20 kts 14°
2026-05-07 15:30 38.78511 -9.13245 367 ft 14 kts 329°
2026-05-07 15:30 38.78520 -9.13254 361 ft 0 kts 319°
2026-05-07 15:31 38.78520 -9.13255 361 ft 1 kts 319°
2026-05-07 15:31 38.78540 -9.13334 360 ft 14 kts 262°
2026-05-07 15:31 38.78477 -9.13408 368 ft 13 kts 204°
2026-05-07 15:32 38.78226 -9.13542 366 ft 76 kts 202°
2026-05-07 15:32 38.77489 -9.13936 369 ft 150 kts 202°
2026-05-07 15:32 38.76417 -9.14505 844 ft 169 kts 202°
2026-05-07 15:32 38.75320 -9.15090 1711 ft 173 kts 202°
2026-05-07 15:33 38.74161 -9.15713 2083 ft 192 kts 201°
2026-05-07 15:33 38.72858 -9.16408 2362 ft 215 kts 201°
2026-05-07 15:33 38.71398 -9.17180 2727 ft 238 kts 201°
2026-05-07 15:33 38.69794 -9.18033 3131 ft 262 kts 203°
2026-05-07 15:34 38.68052 -9.18972 3750 ft 274 kts 202°
2026-05-07 15:34 38.66307 -9.19900 4785 ft 270 kts 202°
2026-05-07 15:34 38.64740 -9.21181 5580 ft 275 kts 229°
2026-05-07 15:34 38.63912 -9.23364 6384 ft 279 kts 262°
2026-05-07 15:35 38.64137 -9.25809 7146 ft 282 kts 292°
2026-05-07 15:35 38.65059 -9.28038 7949 ft 285 kts 306°
2026-05-07 15:35 38.66575 -9.29664 8667 ft 290 kts 335°
2026-05-07 15:35 38.68481 -9.30525 9407 ft 293 kts 347°
2026-05-07 15:36 38.70511 -9.30817 10121 ft 298 kts
2026-05-07 15:36 38.72558 -9.30218 10630 ft 311 kts 26°
2026-05-07 15:36 38.74471 -9.28734 10837 ft 333 kts 33°
2026-05-07 15:36 38.76474 -9.27039 11001 ft 357 kts 33°
2026-05-07 15:37 38.78586 -9.25222 11348 ft 371 kts 33°
2026-05-07 15:37 38.80740 -9.23352 11945 ft 377 kts 33°
2026-05-07 15:37 38.82928 -9.21459 12582 ft 381 kts 33°
2026-05-07 15:37 38.85063 -9.19415 13224 ft 386 kts 41°
2026-05-07 15:38 38.86934 -9.16921 13865 ft 389 kts 48°
2026-05-07 15:38 38.88740 -9.14314 14493 ft 392 kts 47°
2026-05-07 15:38 38.90537 -9.11721 15106 ft 395 kts 47°
2026-05-07 15:38 38.92371 -9.09075 15704 ft 398 kts 47°
2026-05-07 15:39 38.94227 -9.06399 16261 ft 402 kts 47°
2026-05-07 15:39 38.96092 -9.03710 16812 ft 405 kts 47°
2026-05-07 15:39 38.97975 -9.00992 17329 ft 408 kts 47°
2026-05-07 15:39 38.99873 -8.98253 17846 ft 412 kts 47°
2026-05-07 15:40 39.01783 -8.95494 18354 ft 414 kts 47°
2026-05-07 15:40 39.03701 -8.92716 18851 ft 417 kts 47°
2026-05-07 15:40 39.05639 -8.89913 19347 ft 420 kts 47°
2026-05-07 15:40 39.07585 -8.87093 19822 ft 423 kts 47°
2026-05-07 15:41 39.09543 -8.84248 20277 ft 426 kts 47°
2026-05-07 15:41 39.11509 -8.81389 20733 ft 428 kts 47°
2026-05-07 15:41 39.13493 -8.78504 21158 ft 431 kts 47°
2026-05-07 15:41 39.15485 -8.75603 21589 ft 433 kts 47°
2026-05-07 15:42 39.17485 -8.72685 21987 ft 436 kts 47°
2026-05-07 15:42 39.19499 -8.69744 22398 ft 439 kts 47°
2026-05-07 15:42 39.21525 -8.66776 22789 ft 441 kts 47°
2026-05-07 15:42 39.23556 -8.63796 23169 ft 444 kts 47°
2026-05-07 15:43 39.25601 -8.60799 23551 ft 446 kts 47°
2026-05-07 15:43 39.27658 -8.57782 23910 ft 448 kts 47°
2026-05-07 15:43 39.29721 -8.54752 24258 ft 451 kts 48°
2026-05-07 15:43 39.31798 -8.51690 24597 ft 453 kts 48°
2026-05-07 15:44 39.33878 -8.48620 24923 ft 455 kts 48°
2026-05-07 15:44 39.35943 -8.45573 25245 ft 458 kts 47°
2026-05-07 15:44 39.38047 -8.42469 25570 ft 460 kts 47°
2026-05-07 15:44 39.40159 -8.39350 25887 ft 463 kts 47°
2026-05-07 15:45 39.42283 -8.36208 26196 ft 465 kts 47°
2026-05-07 15:45 39.44415 -8.33052 26501 ft 467 kts 47°
2026-05-07 15:45 39.46555 -8.29881 26809 ft 468 kts 47°
2026-05-07 15:45 39.48706 -8.26696 27086 ft 470 kts 47°
2026-05-07 15:46 39.53027 -8.20293 27632 ft 474 kts 47°
2026-05-07 15:46 39.55203 -8.17064 27902 ft 476 kts 47°
2026-05-07 15:46 39.57385 -8.13819 28136 ft 478 kts 47°
2026-05-07 15:47 39.59574 -8.10555 28396 ft 480 kts 47°
2026-05-07 15:47 39.61766 -8.07282 28648 ft 482 kts 47°
2026-05-07 15:47 39.63967 -8.03994 28914 ft 483 kts 47°
2026-05-07 15:47 39.66174 -8.00720 29265 ft 481 kts 46°
2026-05-07 15:48 39.68448 -7.97540 29599 ft 480 kts 44°
2026-05-07 15:48 39.70792 -7.94452 29923 ft 479 kts 43°
2026-05-07 15:48 39.73166 -7.91427 30238 ft 478 kts 41°
2026-05-07 15:48 39.75552 -7.88413 30554 ft 478 kts 41°
2026-05-07 15:49 39.77928 -7.85388 30863 ft 478 kts 42°
2026-05-07 15:49 39.80285 -7.82342 31172 ft 477 kts 42°
2026-05-07 15:49 39.82621 -7.79272 31454 ft 478 kts 43°
2026-05-07 15:49 39.84947 -7.76188 31754 ft 477 kts 43°
2026-05-07 15:50 39.87268 -7.73100 32032 ft 477 kts 43°
2026-05-07 15:50 39.89553 -7.70055 32324 ft 477 kts 43°
2026-05-07 15:50 39.91871 -7.66972 32604 ft 476 kts 43°
2026-05-07 15:50 39.94196 -7.63891 32886 ft 476 kts 42°
2026-05-07 15:51 39.96515 -7.60818 33178 ft 475 kts 42°
2026-05-07 15:51 39.98831 -7.57749 33475 ft 474 kts 42°
2026-05-07 15:51 40.01144 -7.54681 33759 ft 474 kts 42°
2026-05-07 15:51 40.03450 -7.51616 34008 ft 474 kts 42°
2026-05-07 15:52 40.05758 -7.48545 34268 ft 473 kts 42°
2026-05-07 15:52 40.08067 -7.45474 34514 ft 473 kts 42°
2026-05-07 15:52 40.10372 -7.42404 34779 ft 473 kts 42°
2026-05-07 15:52 40.12676 -7.39328 35024 ft 473 kts 42°
2026-05-07 15:53 40.14975 -7.36254 35247 ft 473 kts 42°
2026-05-07 15:53 40.17273 -7.33177 35461 ft 474 kts 42°
2026-05-07 15:53 40.19572 -7.30096 35687 ft 473 kts 42°
2026-05-07 15:53 40.21870 -7.27010 35907 ft 473 kts 42°
2026-05-07 15:54 40.24164 -7.23924 36113 ft 473 kts 42°
2026-05-07 15:54 40.26462 -7.20836 36228 ft 474 kts 42°
2026-05-07 15:54 40.28769 -7.17739 36250 ft 475 kts 42°
2026-05-07 15:55 40.33376 -7.11532 36242 ft 476 kts 42°
2026-05-07 15:55 40.37980 -7.05307 36247 ft 475 kts 42°
2026-05-07 15:56 40.42590 -6.99070 36248 ft 475 kts 42°
2026-05-07 15:56 40.47186 -6.92842 36248 ft 475 kts 42°
2026-05-07 15:57 40.51776 -6.86609 36247 ft 474 kts 43°
2026-05-07 15:57 40.56333 -6.80409 36252 ft 474 kts 43°
2026-05-07 15:58 40.60907 -6.74163 36248 ft 474 kts 43°
2026-05-07 15:58 40.65595 -6.68080 36253 ft 471 kts 39°
2026-05-07 15:59 40.70520 -6.62399 36255 ft 470 kts 37°
2026-05-07 15:59 40.75489 -6.56783 36254 ft 470 kts 37°
2026-05-07 16:00 40.80397 -6.51070 36258 ft 470 kts 38°
2026-05-07 16:00 40.85263 -6.45294 36261 ft 470 kts 38°
2026-05-07 16:01 40.90126 -6.39500 36265 ft 470 kts 38°
2026-05-07 16:01 40.94987 -6.33718 36263 ft 470 kts 38°
2026-05-07 16:02 40.99844 -6.27948 36267 ft 469 kts 38°
2026-05-07 16:02 41.04702 -6.22181 36269 ft 469 kts 39°
2026-05-07 16:03 41.09554 -6.16399 36269 ft 469 kts 39°
2026-05-07 16:03 41.14396 -6.10613 36270 ft 469 kts 39°
2026-05-07 16:04 41.19203 -6.04859 36272 ft 468 kts 39°
2026-05-07 16:04 41.24031 -5.99057 36273 ft 468 kts 39°
2026-05-07 16:05 41.28845 -5.93257 36281 ft 467 kts 39°
2026-05-07 16:05 41.33644 -5.87455 36281 ft 466 kts 39°
2026-05-07 16:06 41.38435 -5.81662 36282 ft 465 kts 39°
2026-05-07 16:06 41.43227 -5.75875 36280 ft 465 kts 39°
2026-05-07 16:07 41.48012 -5.70081 36279 ft 464 kts 39°
2026-05-07 16:07 41.52935 -5.64546 36280 ft 460 kts 30°
2026-05-07 16:08 41.57643 -5.61365 36274 ft 455 kts 19°
2026-05-07 16:08 41.64427 -5.57571 36260 ft 455 kts 20°
2026-05-07 16:09 41.70252 -5.54270 36256 ft 455 kts 20°
2026-05-07 16:09 41.75135 -5.51501 36253 ft 455 kts 20°
2026-05-07 16:10 41.80968 -5.48194 36247 ft 455 kts 20°
2026-05-07 16:10 41.86801 -5.44879 36253 ft 456 kts 20°
2026-05-07 16:11 41.92643 -5.41552 36259 ft 455 kts 20°
2026-05-07 16:11 41.98479 -5.38231 36260 ft 455 kts 20°
2026-05-07 16:12 42.04277 -5.34931 36255 ft 455 kts 20°
2026-05-07 16:12 42.10106 -5.31594 36255 ft 455 kts 20°
2026-05-07 16:13 42.15937 -5.28239 36257 ft 455 kts 20°
2026-05-07 16:13 42.21772 -5.24888 36258 ft 455 kts 20°
2026-05-07 16:14 42.27599 -5.21539 36260 ft 455 kts 20°
2026-05-07 16:14 42.33424 -5.18171 36260 ft 455 kts 20°
2026-05-07 16:15 42.39242 -5.14810 36259 ft 455 kts 20°
2026-05-07 16:15 42.45065 -5.11434 36258 ft 455 kts 20°
2026-05-07 16:16 42.50884 -5.08053 36259 ft 455 kts 20°
2026-05-07 16:16 42.56707 -5.04676 36259 ft 454 kts 20°
2026-05-07 16:17 42.62481 -5.01320 36260 ft 454 kts 20°
2026-05-07 16:17 42.68293 -4.97920 36261 ft 454 kts 20°
2026-05-07 16:18 42.74094 -4.94514 36259 ft 454 kts 20°
2026-05-07 16:18 42.79896 -4.91115 36257 ft 454 kts 20°
2026-05-07 16:19 42.85691 -4.87712 36254 ft 453 kts 20°
2026-05-07 16:19 42.91481 -4.84295 36253 ft 453 kts 20°
2026-05-07 16:20 42.97266 -4.80880 36251 ft 453 kts 20°
2026-05-07 16:20 43.03061 -4.77452 36250 ft 453 kts 20°
2026-05-07 16:21 43.08852 -4.74023 36251 ft 454 kts 20°
2026-05-07 16:21 43.14648 -4.70580 36252 ft 454 kts 20°
2026-05-07 16:22 43.20444 -4.67130 36253 ft 454 kts 20°
2026-05-07 16:22 43.26235 -4.63682 36252 ft 453 kts 20°
2026-05-07 16:23 43.32019 -4.60232 36253 ft 454 kts 20°
2026-05-07 16:23 43.37767 -4.56792 36253 ft 454 kts 20°
2026-05-07 16:24 43.43550 -4.53315 36256 ft 453 kts 20°
2026-05-07 16:24 43.49329 -4.49826 36258 ft 453 kts 20°
2026-05-07 16:25 43.55104 -4.46341 36255 ft 453 kts 20°
2026-05-07 16:25 43.60880 -4.42860 36256 ft 453 kts 20°
2026-05-07 16:26 43.66655 -4.39372 36253 ft 453 kts 20°
2026-05-07 16:26 43.72420 -4.35874 36253 ft 452 kts 20°
2026-05-07 16:27 43.78180 -4.32367 36254 ft 453 kts 20°
2026-05-07 16:27 43.83948 -4.28859 36256 ft 453 kts 20°
2026-05-07 16:28 43.89715 -4.25345 36257 ft 453 kts 20°
2026-05-07 16:28 43.95475 -4.21823 36257 ft 452 kts 20°
2026-05-07 16:29 44.01230 -4.18296 36256 ft 452 kts 20°
2026-05-07 16:29 44.06980 -4.14766 36252 ft 452 kts 20°
2026-05-07 16:30 44.12734 -4.11223 36251 ft 452 kts 20°
2026-05-07 16:30 44.18484 -4.07673 36249 ft 452 kts 20°
2026-05-07 16:31 44.24228 -4.04121 36248 ft 452 kts 20°
2026-05-07 16:31 44.29981 -4.00561 36243 ft 452 kts 20°
2026-05-07 16:32 44.35930 -3.98053 36248 ft 445 kts
2026-05-07 16:32 44.42037 -3.96678 36248 ft 445 kts
2026-05-07 16:33 44.48149 -3.95268 36246 ft 445 kts
2026-05-07 16:33 44.54258 -3.93856 36248 ft 445 kts
2026-05-07 16:34 44.60330 -3.92449 36249 ft 445 kts
2026-05-07 16:34 44.66444 -3.91036 36246 ft 445 kts
2026-05-07 16:35 44.72557 -3.89620 36242 ft 445 kts
2026-05-07 16:35 44.78668 -3.88200 36238 ft 445 kts
2026-05-07 16:36 44.84780 -3.86778 36237 ft 446 kts
2026-05-07 16:36 44.90901 -3.85348 36235 ft 446 kts
2026-05-07 16:37 44.97032 -3.83922 36237 ft 447 kts
2026-05-07 16:37 45.03170 -3.82495 36239 ft 447 kts
2026-05-07 16:38 45.09305 -3.81068 36239 ft 447 kts
2026-05-07 16:38 45.15444 -3.79610 36241 ft 448 kts
2026-05-07 16:39 45.21588 -3.78152 36243 ft 448 kts
2026-05-07 16:39 45.27746 -3.76696 36245 ft 448 kts
2026-05-07 16:40 45.33902 -3.75239 36250 ft 449 kts
2026-05-07 16:40 45.40070 -3.73778 36252 ft 449 kts
2026-05-07 16:41 45.46200 -3.72322 36252 ft 450 kts
2026-05-07 16:41 45.52371 -3.70849 36249 ft 450 kts
2026-05-07 16:42 45.58545 -3.69374 36247 ft 450 kts
2026-05-07 16:42 45.64735 -3.67903 36245 ft 451 kts
2026-05-07 16:43 45.70927 -3.66427 36244 ft 451 kts
2026-05-07 16:43 45.77121 -3.64932 36248 ft 451 kts
2026-05-07 16:44 45.83318 -3.63428 36249 ft 451 kts
2026-05-07 16:44 45.89506 -3.61929 36248 ft 451 kts
2026-05-07 16:45 45.95709 -3.60430 36244 ft 452 kts
2026-05-07 16:45 46.01907 -3.58924 36245 ft 452 kts
2026-05-07 16:46 46.08107 -3.57427 36249 ft 452 kts
2026-05-07 16:46 46.14307 -3.55918 36244 ft 451 kts
2026-05-07 16:47 46.20496 -3.54402 36240 ft 451 kts
2026-05-07 16:47 46.26644 -3.52899 36237 ft 451 kts
2026-05-07 16:48 46.32841 -3.51383 36238 ft 451 kts
2026-05-07 16:48 46.39042 -3.49858 36233 ft 451 kts
2026-05-07 16:49 46.45245 -3.48330 36234 ft 451 kts
2026-05-07 16:49 46.51435 -3.46798 36235 ft 451 kts
2026-05-07 16:50 46.57620 -3.45270 36236 ft 451 kts
2026-05-07 16:50 46.63804 -3.43739 36224 ft 450 kts
2026-05-07 16:51 46.69984 -3.42193 36222 ft 450 kts
2026-05-07 16:51 46.76158 -3.40649 36225 ft 451 kts
2026-05-07 16:52 46.82350 -3.39100 36226 ft 450 kts
2026-05-07 16:52 46.88485 -3.37564 36226 ft 450 kts
2026-05-07 16:53 46.94666 -3.36014 36227 ft 450 kts
2026-05-07 16:53 47.00841 -3.34468 36228 ft 450 kts
2026-05-07 16:54 47.06014 -3.33169 36227 ft 450 kts
2026-05-07 16:54 47.12185 -3.31604 36225 ft 450 kts
2026-05-07 16:55 47.18315 -3.30045 36223 ft 450 kts
2026-05-07 16:55 47.24481 -3.28474 36222 ft 450 kts
2026-05-07 16:56 47.30654 -3.26904 36219 ft 450 kts
2026-05-07 16:56 47.39906 -3.24543 36217 ft 450 kts
2026-05-07 16:57 47.46085 -3.22970 36218 ft 450 kts
2026-05-07 16:57 47.52259 -3.21396 36220 ft 450 kts
2026-05-07 16:58 47.58445 -3.19814 36225 ft 451 kts
2026-05-07 16:58 47.64628 -3.18217 36228 ft 451 kts
2026-05-07 16:59 47.70805 -3.16607 36227 ft 451 kts
2026-05-07 16:59 47.76814 -3.13544 36223 ft 466 kts 22°
2026-05-07 17:00 47.82438 -3.08657 36222 ft 468 kts 24°
2026-05-07 17:00 47.88065 -3.03754 36219 ft 468 kts 24°
2026-05-07 17:01 47.93693 -2.98842 36218 ft 469 kts 24°
2026-05-07 17:01 47.99313 -2.93912 36216 ft 469 kts 24°
2026-05-07 17:02 48.04933 -2.88969 36208 ft 469 kts 24°
2026-05-07 17:02 48.10563 -2.84006 36203 ft 470 kts 24°
2026-05-07 17:03 48.16202 -2.79025 36202 ft 471 kts 24°
2026-05-07 17:03 48.21838 -2.74028 36202 ft 471 kts 24°
2026-05-07 17:04 48.27478 -2.69017 36201 ft 471 kts 24°
2026-05-07 17:04 48.33120 -2.63985 36199 ft 471 kts 24°
2026-05-07 17:05 48.38752 -2.58949 36197 ft 471 kts 24°
2026-05-07 17:05 48.44349 -2.53932 36201 ft 471 kts 24°
2026-05-07 17:06 48.50220 -2.49859 36200 ft 462 kts 15°
2026-05-07 17:06 48.56176 -2.46185 36201 ft 463 kts 15°
2026-05-07 17:07 48.62141 -2.42480 36201 ft 463 kts 15°
2026-05-07 17:07 48.68108 -2.38752 36201 ft 463 kts 15°
2026-05-07 17:08 48.74068 -2.35022 36204 ft 464 kts 15°
2026-05-07 17:08 48.80027 -2.31289 36205 ft 464 kts 15°
2026-05-07 17:09 48.85992 -2.27543 36203 ft 464 kts 15°
2026-05-07 17:09 48.91923 -2.23794 36201 ft 465 kts 15°
2026-05-07 17:10 48.97901 -2.20014 36201 ft 465 kts 15°
2026-05-07 17:10 49.03894 -2.16230 36206 ft 466 kts 15°
2026-05-07 17:11 49.09886 -2.12426 36204 ft 467 kts 15°
2026-05-07 17:11 49.15892 -2.08593 36203 ft 468 kts 15°
2026-05-07 17:12 49.21891 -2.04725 36205 ft 470 kts 18°
2026-05-07 17:12 49.27688 -1.99916 36202 ft 475 kts 21°
2026-05-07 17:13 49.33477 -1.95008 36200 ft 476 kts 21°
2026-05-07 17:13 49.39264 -1.90088 36202 ft 476 kts 21°
2026-05-07 17:14 49.45063 -1.85137 36203 ft 476 kts 21°
2026-05-07 17:14 49.50850 -1.80182 36199 ft 476 kts 21°
2026-05-07 17:15 49.56662 -1.75302 36195 ft 471 kts 16°
2026-05-07 17:15 49.62798 -1.72445 36184 ft 452 kts 359°
2026-05-07 17:16 49.69000 -1.71776 36181 ft 446 kts 354°
2026-05-07 17:16 49.75207 -1.71266 36181 ft 447 kts 354°
2026-05-07 17:17 49.81416 -1.70735 36180 ft 447 kts 354°
2026-05-07 17:17 49.87643 -1.70197 36182 ft 448 kts 354°
2026-05-07 17:18 49.93868 -1.69662 36188 ft 448 kts 354°
2026-05-07 17:18 50.00099 -1.68883 36192 ft 456 kts
2026-05-07 17:19 50.06291 -1.66158 36185 ft 465 kts
2026-05-07 17:19 50.12421 -1.63159 36186 ft 465 kts
2026-05-07 17:20 50.18594 -1.60136 36198 ft 464 kts
2026-05-07 17:20 50.24756 -1.57123 36198 ft 463 kts
2026-05-07 17:21 50.30909 -1.54128 36190 ft 463 kts
2026-05-07 17:21 50.37057 -1.51129 36180 ft 463 kts
2026-05-07 17:22 50.43207 -1.48117 36175 ft 463 kts
2026-05-07 17:22 50.49370 -1.45088 36172 ft 463 kts
2026-05-07 17:23 50.52456 -1.43551 35600 ft 471 kts 11°
2026-05-07 17:23 50.55529 -1.41441 34425 ft 492 kts 21°
2026-05-07 17:23 50.58551 -1.38826 33419 ft 498 kts 21°
2026-05-07 17:23 50.61601 -1.36194 32485 ft 501 kts 22°
2026-05-07 17:24 50.64668 -1.33558 31515 ft 504 kts 22°
2026-05-07 17:24 50.67737 -1.30914 30115 ft 501 kts 22°
2026-05-07 17:24 50.70807 -1.28268 28296 ft 506 kts 22°
2026-05-07 17:24 50.73903 -1.25598 26360 ft 509 kts 23°
2026-05-07 17:25 50.77027 -1.22869 24436 ft 514 kts 25°
2026-05-07 17:25 50.80049 -1.19991 23229 ft 500 kts 27°
2026-05-07 17:25 50.82934 -1.17036 21940 ft 489 kts 29°
2026-05-07 17:25 50.85721 -1.14053 20639 ft 479 kts 30°
2026-05-07 17:26 50.88443 -1.11104 19359 ft 469 kts 30°
2026-05-07 17:26 50.91117 -1.08229 18100 ft 460 kts 30°
2026-05-07 17:26 50.93754 -1.05436 16850 ft 451 kts 29°
2026-05-07 17:26 50.96349 -1.02726 15613 ft 442 kts 29°
2026-05-07 17:27 50.98905 -1.00078 14368 ft 435 kts 30°
2026-05-07 17:27 51.01215 -0.97094 13627 ft 421 kts 43°
2026-05-07 17:27 51.03165 -0.93720 13329 ft 410 kts 46°
2026-05-07 17:27 51.05064 -0.90379 13142 ft 398 kts 46°
2026-05-07 17:28 51.06849 -0.87220 13004 ft 370 kts 46°
2026-05-07 17:28 51.08506 -0.84271 12853 ft 347 kts 46°
2026-05-07 17:28 51.10085 -0.81457 12411 ft 336 kts 46°
2026-05-07 17:28 51.11632 -0.78694 11835 ft 332 kts 46°
2026-05-07 17:29 51.13184 -0.75918 11205 ft 329 kts 46°
2026-05-07 17:29 51.14671 -0.73257 10598 ft 325 kts 46°
2026-05-07 17:29 51.16166 -0.70586 10013 ft 320 kts 47°
2026-05-07 17:29 51.17631 -0.67957 9581 ft 313 kts 47°
2026-05-07 17:30 51.19075 -0.65362 9201 ft 313 kts 47°
2026-05-07 17:30 51.20515 -0.62761 8792 ft 311 kts 47°
2026-05-07 17:30 51.21952 -0.60193 8422 ft 310 kts 44°
2026-05-07 17:30 51.23657 -0.58227 8132 ft 298 kts 17°
2026-05-07 17:31 51.25650 -0.57695 8122 ft 288 kts 350°
2026-05-07 17:31 51.27515 -0.58597 8117 ft 277 kts 322°
2026-05-07 17:31 51.28863 -0.60663 8122 ft 265 kts 299°
2026-05-07 17:31 51.29852 -0.63147 8107 ft 266 kts 296°
2026-05-07 17:32 51.30806 -0.65699 8104 ft 268 kts 296°
2026-05-07 17:32 51.31751 -0.68245 8104 ft 266 kts 295°
2026-05-07 17:32 51.32371 -0.70968 8107 ft 259 kts 278°
2026-05-07 17:32 51.32593 -0.72845 8109 ft 258 kts 276°
2026-05-07 17:33 51.32889 -0.75686 8010 ft 260 kts 276°
2026-05-07 17:33 51.33176 -0.78526 7784 ft 258 kts 276°
2026-05-07 17:33 51.33458 -0.81341 7559 ft 256 kts 276°
2026-05-07 17:33 51.33740 -0.84149 7335 ft 255 kts 276°
2026-05-07 17:34 51.34019 -0.86958 7106 ft 256 kts 276°
2026-05-07 17:34 51.34306 -0.89885 6876 ft 277 kts 276°
2026-05-07 17:34 51.34592 -0.92908 6659 ft 284 kts 276°
2026-05-07 17:34 51.34881 -0.96024 6421 ft 283 kts 276°
2026-05-07 17:35 51.35168 -0.99124 6223 ft 281 kts 276°
2026-05-07 17:35 51.35457 -1.02214 6103 ft 281 kts 276°
2026-05-07 17:35 51.36000 -1.05235 5977 ft 286 kts 294°
2026-05-07 17:35 51.37284 -1.07695 5851 ft 295 kts 319°
2026-05-07 17:36 51.39169 -1.09054 5722 ft 305 kts 344°
2026-05-07 17:36 51.41312 -1.09152 5610 ft 312 kts 359°
2026-05-07 17:36 51.43478 -1.08865 5476 ft 312 kts
2026-05-07 17:36 51.45610 -1.08553 5356 ft 312 kts
2026-05-07 17:37 51.47770 -1.08223 5231 ft 312 kts
2026-05-07 17:37 51.49848 -1.07178 5089 ft 319 kts 27°
2026-05-07 17:37 51.51512 -1.04812 5040 ft 323 kts 54°
2026-05-07 17:37 51.52467 -1.01553 5049 ft 325 kts 73°
2026-05-07 17:38 51.53079 -0.98068 5044 ft 325 kts 76°
2026-05-07 17:38 51.53663 -0.94554 5042 ft 326 kts 76°
2026-05-07 17:38 51.54245 -0.91035 5038 ft 325 kts 76°
2026-05-07 17:38 51.54820 -0.87532 5051 ft 324 kts 76°
2026-05-07 17:39 51.55385 -0.84071 5043 ft 311 kts 76°
2026-05-07 17:39 51.56131 -0.80806 5055 ft 320 kts 58°
2026-05-07 17:39 51.57621 -0.78155 5058 ft 321 kts 32°
2026-05-07 17:39 51.59624 -0.76701 5056 ft 315 kts
2026-05-07 17:40 51.61745 -0.76685 5050 ft 302 kts 342°
2026-05-07 17:40 51.63604 -0.78078 5049 ft 290 kts 316°
2026-05-07 17:40 51.64833 -0.80551 5043 ft 279 kts 290°
2026-05-07 17:40 51.65206 -0.83560 5046 ft 274 kts 264°
2026-05-07 17:41 51.64687 -0.86391 5042 ft 272 kts 239°
2026-05-07 17:41 51.63375 -0.88554 5034 ft 275 kts 213°
2026-05-07 17:41 51.61542 -0.89515 5052 ft 285 kts 188°
2026-05-07 17:41 51.59547 -0.89458 5040 ft 289 kts 181°
2026-05-07 17:42 51.57534 -0.89253 5046 ft 290 kts 181°
2026-05-07 17:42 51.55533 -0.89055 5043 ft 288 kts 181°
2026-05-07 17:42 51.53526 -0.88849 4988 ft 290 kts 181°
2026-05-07 17:42 51.51515 -0.88643 4716 ft 289 kts 181°
2026-05-07 17:43 51.49519 -0.88423 4315 ft 286 kts 179°
2026-05-07 17:43 51.47628 -0.87444 4057 ft 294 kts 150°
2026-05-07 17:43 51.46322 -0.84939 4046 ft 293 kts 116°
2026-05-07 17:43 51.46059 -0.81798 4008 ft 284 kts 82°
2026-05-07 17:44 51.46766 -0.78951 3729 ft 269 kts 60°
2026-05-07 17:44 51.47511 -0.76305 3424 ft 254 kts 80°
2026-05-07 17:44 51.47664 -0.73565 3120 ft 240 kts 93°
2026-05-07 17:44 51.47653 -0.70976 2814 ft 224 kts 94°
2026-05-07 17:45 51.47653 -0.68518 2550 ft 222 kts 92°
2026-05-07 17:45 51.47664 -0.66101 2250 ft 209 kts 94°
2026-05-07 17:45 51.47674 -0.63858 1989 ft 198 kts 92°
2026-05-07 17:45 51.47688 -0.61654 1691 ft 193 kts 92°
2026-05-07 17:46 51.47697 -0.59550 1444 ft 190 kts 92°
2026-05-07 17:46 51.47708 -0.57453 1203 ft 186 kts 92°
2026-05-07 17:46 51.47862 -0.55372 954 ft 187 kts 74°
2026-05-07 17:46 51.48359 -0.53483 773 ft 185 kts 65°
2026-05-07 17:47 51.48977 -0.51579 859 ft 205 kts 64°
2026-05-07 17:47 51.49644 -0.49408 1018 ft 229 kts 65°
2026-05-07 17:47 51.50367 -0.47013 1326 ft 251 kts 65°
2026-05-07 17:47 51.51356 -0.44613 2053 ft 264 kts 50°
2026-05-07 17:48 51.52581 -0.42362 2978 ft 271 kts 48°
2026-05-07 17:48 51.53849 -0.40041 3720 ft 283 kts 48°
2026-05-07 17:48 51.55161 -0.37631 3981 ft 287 kts 46°
2026-05-07 17:48 51.56558 -0.35344 4054 ft 287 kts 41°
2026-05-07 17:49 51.58010 -0.33135 4057 ft 287 kts 41°
2026-05-07 17:49 51.59467 -0.30939 4048 ft 287 kts 41°
2026-05-07 17:49 51.60918 -0.28741 4045 ft 286 kts 41°
2026-05-07 17:49 51.62369 -0.26537 4044 ft 287 kts 41°
2026-05-07 17:50 51.63848 -0.24386 4043 ft 285 kts 33°
2026-05-07 17:50 51.65686 -0.23091 4053 ft 300 kts
2026-05-07 17:50 51.67756 -0.23144 4047 ft 297 kts 340°
2026-05-07 17:50 51.69634 -0.24426 4038 ft 292 kts 327°
2026-05-07 17:51 51.71420 -0.25981 4035 ft 292 kts 326°
2026-05-07 17:51 51.73191 -0.27581 4034 ft 291 kts 322°
2026-05-07 17:51 51.74595 -0.29804 4032 ft 279 kts 297°
2026-05-07 17:51 51.75193 -0.32718 4035 ft 273 kts 271°
2026-05-07 17:52 51.74898 -0.35693 4036 ft 270 kts 249°
2026-05-07 17:52 51.74202 -0.38463 4040 ft 269 kts 246°
2026-05-07 17:52 51.73457 -0.41249 4036 ft 270 kts 246°
2026-05-07 17:52 51.72705 -0.44029 4036 ft 271 kts 246°
2026-05-07 17:53 51.71953 -0.46799 4035 ft 269 kts 246°
2026-05-07 17:53 51.71197 -0.49555 4035 ft 269 kts 246°
2026-05-07 17:53 51.70437 -0.52323 4035 ft 270 kts 246°
2026-05-07 17:53 51.69683 -0.55092 4034 ft 269 kts 246°
2026-05-07 17:54 51.68929 -0.57856 4036 ft 270 kts 246°
2026-05-07 17:54 51.68177 -0.60625 4046 ft 270 kts 246°
2026-05-07 17:54 51.67423 -0.63399 4047 ft 270 kts 246°
2026-05-07 17:54 51.66669 -0.66173 4040 ft 270 kts 246°
2026-05-07 17:55 51.65908 -0.68943 4044 ft 270 kts 245°
2026-05-07 17:55 51.64826 -0.71390 4046 ft 272 kts 222°
2026-05-07 17:55 51.63230 -0.73047 4048 ft 275 kts 212°
2026-05-07 17:55 51.61546 -0.74526 4043 ft 276 kts 211°
2026-05-07 17:56 51.59860 -0.75982 4043 ft 272 kts 211°
2026-05-07 17:56 51.58256 -0.77361 4004 ft 253 kts 211°
2026-05-07 17:56 51.56719 -0.78665 3734 ft 245 kts 211°
2026-05-07 17:56 51.55271 -0.79885 3665 ft 230 kts 211°
2026-05-07 17:57 51.53870 -0.81063 3612 ft 221 kts 211°
2026-05-07 17:57 51.52987 -0.81795 3579 ft 212 kts 209°
2026-05-07 17:57 51.51108 -0.82086 3518 ft 208 kts 165°
2026-05-07 17:57 51.49964 -0.80761 3463 ft 207 kts 137°
2026-05-07 17:58 51.49100 -0.78966 3437 ft 199 kts 132°
2026-05-07 17:58 51.48311 -0.77158 3414 ft 197 kts 131°
2026-05-07 17:58 51.47700 -0.75161 3267 ft 205 kts 108°
2026-05-07 17:58 51.47607 -0.72865 3024 ft 206 kts 92°
2026-05-07 17:59 51.47632 -0.70605 2766 ft 199 kts 92°
2026-05-07 17:59 51.47651 -0.68495 2517 ft 181 kts 93°
2026-05-07 17:59 51.47666 -0.66573 2277 ft 166 kts 92°
2026-05-07 17:59 51.47675 -0.64731 2083 ft 170 kts 93°
2026-05-07 18:00 51.47682 -0.62810 1844 ft 168 kts 92°
2026-05-07 18:00 51.47692 -0.61008 1628 ft 157 kts 93°
2026-05-07 18:00 51.47700 -0.59294 1422 ft 151 kts 92°
2026-05-07 18:00 51.47708 -0.57625 1224 ft 147 kts 93°
2026-05-07 18:01 51.47716 -0.55991 1033 ft 146 kts 92°
2026-05-07 18:01 51.47723 -0.54368 835 ft 145 kts 92°
2026-05-07 18:01 51.47731 -0.52756 639 ft 144 kts 92°
2026-05-07 18:01 51.47738 -0.51148 431 ft 143 kts 91°
2026-05-07 18:02 51.47750 -0.47983 97 ft 140 kts 91°
2026-05-07 18:02 51.47761 -0.46578 90 ft 105 kts 89°
2026-05-07 18:02 51.47761 -0.45681 86 ft 56 kts 89°
2026-05-07 18:03 51.47760 -0.45272 87 ft 26 kts 95°
2026-05-07 18:03 51.47670 -0.45175 87 ft 7 kts 179°
2026-05-07 18:03 51.47651 -0.45174 86 ft 0 kts 178°
2026-05-07 18:05 51.47627 -0.45173 90 ft 14 kts 179°
2026-05-07 18:05 51.47524 -0.45142 88 ft 15 kts 138°
2026-05-07 18:06 51.47510 -0.44981 88 ft 14 kts 89°
2026-05-07 18:06 51.47511 -0.44828 86 ft 13 kts 89°
2026-05-07 18:06 51.47511 -0.44691 87 ft 12 kts 91°
2026-05-07 18:06 51.47483 -0.44565 88 ft 15 kts 148°
2026-05-07 18:07 51.47430 -0.44558 87 ft 0 kts 181°
2026-05-07 18:07 51.47416 -0.44559 86 ft 11 kts 180°
2026-05-07 18:07 51.47313 -0.44560 86 ft 16 kts 180°
2026-05-07 18:07 51.47208 -0.44557 88 ft 16 kts 181°
2026-05-07 18:08 51.47099 -0.44557 86 ft 14 kts 179°
2026-05-07 18:08 51.46996 -0.44555 86 ft 14 kts 181°
2026-05-07 18:08 51.46890 -0.44554 90 ft 16 kts 179°
2026-05-07 18:08 51.46782 -0.44558 89 ft 15 kts 194°
2026-05-07 18:09 51.46752 -0.44720 86 ft 17 kts 270°
2026-05-07 18:09 51.46751 -0.44901 86 ft 15 kts 270°
2026-05-07 18:09 51.46751 -0.45040 86 ft 9 kts 270°
2026-05-07 18:09 51.46764 -0.45114 90 ft 6 kts 335°
2026-05-07 18:10 51.46797 -0.45112 88 ft 3 kts
2026-05-07 18:10 51.46816 -0.45112 86 ft 2 kts 360°
2026-05-07 18:10 51.46827 -0.45112 86 ft 0 kts 360°